Weather reports worldwide

Advertisment
Pertusato, France (7770): temperature & dewpoint: 10.01.2018 08:00:00 - 16.01.2018 08:00:00 (CET)Pertusato, France (7770): wind speed & gusts: 10.01.2018 08:00:00 - 16.01.2018 08:00:00 (CET)Pertusato, France (7770): wind direction: 10.01.2018 08:00:00 - 16.01.2018 08:00:00 (CET)Pertusato, France (7770): reduced air pressure: 10.01.2018 08:00:00 - 16.01.2018 08:00:00 (CET)Pertusato, France (7770): visibility: 10.01.2018 08:00:00 - 16.01.2018 08:00:00 (CET)Pertusato, France (7770): precipitation: 10.01.2018 08:00:00 - 16.01.2018 08:00:00 (CET)
Date & Time tt [°C] td [°C] ff [km/h] ff [kn] fx [km/h] fx [kn] dd ppp [hPa] vv [km] rr [mm]
16.01.2018 08:00:00 12,5 8,2 64 35 118 64 - 1014,4 - 0,2
16.01.2018 07:00:00 12,4 8,3 63 34 106 57 - 1014,8 - 0,0
16.01.2018 06:00:00 12,3 7,2 39 21 104 56 - 1014,7 - 0,0
16.01.2018 05:00:00 12,3 8,2 56 31 113 61 - 1015,4 - 1,2
16.01.2018 04:00:00 12,2 8,5 56 30 101 55 - 1015,9 - 0,0
16.01.2018 03:00:00 11,8 7,7 61 33 95 52 - 1018,1 - 0,0
16.01.2018 02:00:00 11,5 7,4 60 33 90 49 - 1018,5 - 0,0
16.01.2018 01:00:00 11,2 9,1 49 27 87 47 - 1020,2 - 0,4
16.01.2018 00:00:00 10,4 8,2 54 29 80 43 - 1020,0 - 1,2
15.01.2018 23:00:00 10,5 7,9 50 27 72 39 - 1021,1 - 0,8
15.01.2018 22:00:00 11,5 8,0 25 13 78 42 - 1020,4 - 0,4
15.01.2018 21:00:00 10,9 6,2 29 16 73 39 - 1019,6 - 0,0
15.01.2018 20:00:00 12,1 7,6 22 12 57 31 - 1020,2 - 0,0
15.01.2018 19:00:00 12,0 7,5 25 13 55 30 - 1020,7 18 0,2
15.01.2018 18:00:00 11,7 7,0 33 18 54 29 - 1021,2 - 0,0
15.01.2018 17:00:00 12,2 7,7 29 15 48 26 - 1021,0 - 0,0
15.01.2018 16:00:00 12,9 8,4 16 9 42 23 - 1020,8 18 0,0
15.01.2018 15:00:00 13,1 8,8 25 14 39 21 - 1020,8 - 0,0
15.01.2018 14:00:00 12,7 9,3 13 7 31 17 - 1021,3 - 0,0
15.01.2018 13:00:00 12,5 8,6 8 5 21 12 - 1022,3 20 0,0
15.01.2018 12:00:00 13,7 7,9 5 3 13 7 - 1023,0 - 0,0
15.01.2018 11:00:00 13,4 9,1 7 4 13 7 - 1023,2 - 0,0
15.01.2018 10:00:00 10,4 8,2 10 5 16 9 - 1023,1 20 0,0
15.01.2018 09:00:00 9,0 7,3 13 7 19 11 - 1022,6 - 0,0
15.01.2018 08:00:00 7,8 6,4 16 8 21 11 - 1022,2 - 0,0
15.01.2018 07:00:00 8,2 6,8 16 9 21 12 - 1021,5 18 0,0
15.01.2018 06:00:00 7,9 6,7 17 9 24 13 - 1021,0 - 0,0
15.01.2018 05:00:00 8,2 7,1 19 10 26 14 - 1021,0 - 0,0
15.01.2018 04:00:00 8,1 7,2 21 11 26 14 - 1021,1 18 0,0
15.01.2018 03:00:00 8,0 7,2 21 11 27 15 - 1021,3 - 0,0
15.01.2018 02:00:00 7,8 6,9 21 11 29 16 - 1021,4 - 0,0
15.01.2018 01:00:00 8,0 7,1 22 12 29 15 - 1021,5 - 0,2
15.01.2018 00:00:00 7,8 6,9 20 11 29 16 - 1021,5 - 0,0
14.01.2018 23:00:00 8,6 7,7 18 10 29 15 - 1021,2 - 0,0
14.01.2018 22:00:00 9,0 7,8 20 11 28 15 - 1021,1 - 1,6
14.01.2018 21:00:00 10,1 7,5 14 7 27 15 - 1020,7 - 0,0
14.01.2018 20:00:00 10,4 6,9 17 9 24 13 - 1020,2 - 0,0
14.01.2018 19:00:00 9,9 6,8 16 8 24 13 - 1020,0 - 0,0
14.01.2018 18:00:00 9,9 6,6 13 7 22 12 - 1019,6 - 0,0
14.01.2018 17:00:00 10,7 6,6 14 8 26 14 - 1019,3 - 0,0
14.01.2018 16:00:00 11,3 6,4 16 9 26 14 - 1018,8 - 0,0
14.01.2018 15:00:00 11,5 5,8 17 9 28 15 - 1018,6 - 0,0
14.01.2018 14:00:00 12,2 5,1 17 9 27 15 - 1018,9 - 0,0
14.01.2018 13:00:00 12,7 5,4 16 9 30 16 - 1019,1 - 0,0
14.01.2018 12:00:00 13,3 6,2 19 11 31 17 - 1019,6 - 0,0
14.01.2018 11:00:00 11,9 5,7 17 9 27 14 - 1020,1 - 0,0
14.01.2018 10:00:00 11,0 4,9 16 8 27 14 - 1020,2 - 0,0
14.01.2018 09:00:00 8,3 4,3 16 8 26 14 - 1019,8 - 0,0
14.01.2018 08:00:00 7,8 4,0 17 9 24 13 - 1019,3 - 0,0
14.01.2018 07:00:00 8,4 4,0 17 9 25 14 - 1019,2 15 0,0
14.01.2018 06:00:00 8,4 4,0 18 10 24 13 - 1019,0 - 0,0
14.01.2018 05:00:00 8,3 4,1 17 9 23 13 - 1018,8 - 0,0
14.01.2018 04:00:00 8,4 4,2 17 9 24 13 - 1019,1 - 0,0
14.01.2018 03:00:00 8,1 4,1 15 8 20 11 - 1019,4 - 0,0
14.01.2018 02:00:00 7,5 3,2 16 9 22 12 - 1019,4 - 0,0
14.01.2018 01:00:00 7,1 3,0 16 9 22 12 - 1019,9 - 0,0
14.01.2018 00:00:00 7,3 3,5 18 10 24 13 - 1020,1 - 0,0
13.01.2018 23:00:00 7,5 3,7 17 9 22 12 - 1020,5 - 0,0
13.01.2018 22:00:00 8,0 4,0 15 8 22 12 - 1020,5 - 0,0
13.01.2018 21:00:00 9,0 4,6 17 9 23 12 - 1020,2 - 0,0
13.01.2018 20:00:00 8,9 4,3 16 9 23 12 - 1020,4 - 0,0
13.01.2018 19:00:00 9,4 5,0 15 8 23 12 - 1020,2 14 0,0
13.01.2018 18:00:00 10,2 5,2 16 9 25 14 - 1020,0 - 0,0
13.01.2018 17:00:00 10,8 4,9 16 8 26 14 - 1020,0 - 0,0
13.01.2018 16:00:00 11,5 5,1 16 9 27 14 - 1019,8 - 0,0
13.01.2018 15:00:00 12,6 5,7 17 9 26 14 - 1019,7 - 0,0
13.01.2018 14:00:00 14,3 4,6 11 6 21 11 - 1019,6 - 0,0
13.01.2018 13:00:00 13,4 4,5 16 8 26 14 - 1019,9 15 0,0
13.01.2018 12:00:00 12,0 4,9 16 9 41 22 - 1020,5 - 0,0
13.01.2018 11:00:00 12,4 4,4 26 14 41 22 - 1020,8 - 0,0
13.01.2018 10:00:00 9,9 4,5 23 12 36 19 - 1020,5 15 0,0
13.01.2018 09:00:00 8,8 4,0 14 8 32 18 - 1020,3 - 0,0
13.01.2018 08:00:00 8,6 4,6 16 9 31 17 - 1020,0 - 0,2
13.01.2018 07:00:00 9,0 4,0 16 9 27 15 - 1019,8 15 0,0
13.01.2018 06:00:00 8,7 4,5 16 8 29 16 - 1019,7 - 0,0
13.01.2018 05:00:00 8,2 4,8 16 9 31 17 - 1019,6 - 0,0
13.01.2018 04:00:00 8,3 5,4 18 10 27 14 - 1019,7 - 0,0
13.01.2018 03:00:00 8,2 5,7 19 11 27 15 - 1019,6 - 0,0
13.01.2018 02:00:00 8,0 6,0 16 9 29 15 - 1019,8 - 0,6
13.01.2018 01:00:00 8,8 4,4 17 9 25 14 - 1019,7 - 0,0
13.01.2018 00:00:00 8,6 4,0 14 8 20 11 - 1019,9 - 0,0
12.01.2018 23:00:00 8,0 3,8 13 7 20 11 - 1019,6 - 0,0
12.01.2018 22:00:00 8,7 4,3 13 7 22 12 - 1019,0 - 0,0
12.01.2018 21:00:00 9,4 4,8 16 8 29 16 - 1018,7 - 0,0
12.01.2018 20:00:00 9,9 5,3 17 9 33 18 - 1018,3 - 0,0
12.01.2018 19:00:00 10,2 6,0 19 10 34 19 - 1017,7 15 0,0
12.01.2018 18:00:00 10,5 6,3 23 12 38 20 - 1017,1 - 0,0
12.01.2018 17:00:00 10,7 6,4 23 12 40 22 - 1016,5 - 0,0
12.01.2018 16:00:00 10,5 6,4 20 11 42 23 - 1015,9 15 0,0
12.01.2018 15:00:00 10,9 6,0 29 16 48 26 - 1015,1 - 0,0
12.01.2018 14:00:00 11,1 6,2 29 16 43 23 - 1014,7 - 0,0
12.01.2018 13:00:00 10,7 6,8 20 11 46 25 - 1014,8 15 0,0
12.01.2018 12:00:00 10,3 7,0 24 13 51 27 - 1015,0 - 0,0
12.01.2018 11:00:00 10,8 6,9 30 16 49 27 - 1014,9 - 0,0
12.01.2018 10:00:00 10,1 6,6 25 13 48 26 - 1014,2 18 0,0
12.01.2018 09:00:00 9,7 7,0 25 14 44 24 - 1013,2 - 0,0
12.01.2018 08:00:00 9,1 7,2 27 15 46 25 - 1012,6 - 0,0
12.01.2018 07:00:00 9,0 7,4 23 12 41 22 - 1012,0 - 0,4
12.01.2018 06:00:00 9,0 7,1 21 11 35 19 - 1011,4 - 0,0
12.01.2018 05:00:00 8,7 7,3 18 10 30 16 - 1011,1 - 0,0
12.01.2018 04:00:00 8,5 7,0 15 8 32 17 - 1010,8 - 0,0
12.01.2018 03:00:00 8,6 7,2 16 9 26 14 - 1010,8 - 0,0
12.01.2018 02:00:00 8,7 7,3 13 7 23 12 - 1010,4 - 0,0
12.01.2018 01:00:00 8,9 7,8 9 5 18 10 - 1010,3 - 0,8
12.01.2018 00:00:00 9,0 7,8 6 3 10 6 - 1010,4 - 0,4
11.01.2018 23:00:00 9,0 7,9 4 2 16 9 - 1010,3 - 0,2
11.01.2018 22:00:00 8,8 7,6 5 3 14 7 - 1010,0 - 0,0
11.01.2018 21:00:00 9,0 7,6 9 5 13 7 - 1009,3 - 0,0
11.01.2018 20:00:00 9,6 7,9 8 5 13 7 - 1009,4 - 0,0
11.01.2018 19:00:00 8,6 6,9 6 3 19 10 - 1009,1 18 0,0
11.01.2018 18:00:00 9,1 7,9 11 6 16 9 - 1008,7 - 0,0
11.01.2018 17:00:00 9,4 8,3 10 5 15 8 - 1008,4 - 3,2
11.01.2018 16:00:00 9,7 8,5 11 6 27 15 - 1008,1 - 7,3
11.01.2018 15:00:00 11,9 8,7 5 3 11 6 - 1007,8 - 0,0
11.01.2018 14:00:00 13,4 8,9 5 3 14 8 - 1007,8 - 0,0
11.01.2018 13:00:00 14,2 8,8 6 3 13 7 - 1008,1 15 0,0
11.01.2018 12:00:00 12,9 8,6 7 4 16 9 - 1009,1 - 0,0
11.01.2018 11:00:00 12,7 8,8 9 5 24 13 - 1009,5 - 0,0
11.01.2018 10:00:00 11,9 8,7 8 4 26 14 - 1009,3 - 0,0
11.01.2018 09:00:00 11,0 9,1 9 5 42 23 - 1009,2 - 0,0
11.01.2018 08:00:00 10,9 8,8 9 5 30 16 - 1009,3 - 0,2
11.01.2018 07:00:00 10,9 8,3 8 5 25 14 - 1009,5 15 0,0
11.01.2018 06:00:00 10,8 9,1 13 7 29 16 - 1009,9 - 0,0
11.01.2018 05:00:00 10,9 9,2 22 12 29 16 - 1009,8 - 0,0
11.01.2018 04:00:00 10,9 9,7 16 9 24 13 - 1010,5 10 0,0
11.01.2018 03:00:00 10,6 9,5 10 5 31 17 - 1011,1 - 0,4
11.01.2018 02:00:00 10,9 10,1 26 14 39 21 - 1011,2 - 0,8
11.01.2018 01:00:00 11,3 10,7 13 7 42 23 - 1011,1 - 0,8
11.01.2018 00:00:00 11,0 10,2 10 5 28 15 - 1012,0 - 1,4
10.01.2018 23:00:00 11,4 10,6 13 7 40 21 - 1012,6 - 1,8
10.01.2018 22:00:00 12,0 10,6 10 5 38 20 - 1013,1 - 0,0
10.01.2018 21:00:00 11,6 9,8 14 8 55 30 - 1013,3 - 0,9
10.01.2018 20:00:00 11,6 10,2 23 12 63 34 SW 1013,1 - 3,6
10.01.2018 19:00:00 12,2 9,9 10 5 30 16 SW 1014,0 18 0,0
10.01.2018 18:00:00 11,8 9,5 9 5 37 20 SSW 1014,1 - 0,0
10.01.2018 17:00:00 11,6 9,0 18 10 48 26 SSW 1014,4 - 0,0
10.01.2018 16:00:00 12,2 9,4 11 6 36 19 WSW 1014,7 12 0,0
10.01.2018 15:00:00 11,3 9,0 10 6 44 24 SSE 1015,0 - 0,2
10.01.2018 14:00:00 11,3 9,2 17 9 44 24 NW 1015,0 - 1,8
10.01.2018 13:00:00 11,6 9,2 22 12 36 19 WNW 1016,4 8 0,0
10.01.2018 12:00:00 13,3 8,8 10 5 28 15 ENE 1016,9 - 0,0
10.01.2018 11:00:00 13,0 9,4 11 6 33 18 N 1017,6 - 0,0
10.01.2018 10:00:00 12,5 9,0 10 6 36 20 ENE 1017,7 15 0,0
10.01.2018 09:00:00 12,3 9,1 11 6 36 20 NNW 1017,9 - 0,0
10.01.2018 08:00:00 11,9 9,1 13 7 44 24 NNW 1017,5 - 0,0

tt = temperature
td = dewpoint
ff = wind speed
fx = gusts
dd = wind direction
ppp = reduced air pressure
vv = visibility
rr = precipitation

Next stations